Thursday, November 23, 2017, 6:29 PM GMT
Back to Local

CYTR, Trenton, Ont.

Location: , , Canada Lat: 44.117
Local Time: 6:29 PM GMT (18:29 GMT) Lon: -77.533
Time Zone: GMT Elev: 278 ft

Show me the last for .
Show Coded

Time T Td Feel RH Dir Speed Gust Alt SLP Vis Weather Sky Remarks
2017-11-23 18:00 37 27 29 64 240° 14 - 29.98 29.99 15 SCT030 OVC071 None
2017-11-23 17:00 34 27 30 74 230° 5 - 30.01 30.03 15 FEW041 OVC091 None
2017-11-23 16:00 32 27 - 80 200° 2 - 30.04 30.06 15 BKN038 OVC096 None
2017-11-23 15:00 28 23 - 79 - Calm - 30.07 30.09 15 OVC038 None
2017-11-23 14:00 27 19 - 73 - Calm - 30.10 30.12 15 BKN031 OVC110 None
2017-11-23 13:00 25 19 - 79 40° 2 - 30.11 30.13 15 OVC031 None
2017-11-23 12:00 25 18 - 73 - Calm - 30.11 30.13 15 OVC033 None
2017-11-23 11:00 23 18 18 79 70° 3 - 30.13 30.15 15 OVC031 None
2017-11-23 10:00 23 18 - 79 40° 2 - 30.16 30.17 15 OVC033 None
2017-11-23 09:00 21 18 - 85 - Calm - 30.16 30.17 15 OVC035 None
2017-11-23 08:00 19 18 - 92 280° 2 - 30.17 30.19 15 BKN039 None
2017-11-23 07:00 19 16 - 85 - Calm - 30.17 30.18 15 CLR None
2017-11-23 06:00 19 16 14 85 300° 3 - 30.17 30.19 15 FEW200 None
2017-11-23 05:00 21 16 16 79 320° 3 - 30.18 30.20 15 CLR None
2017-11-23 04:00 19 16 14 85 280° 3 - 30.20 30.21 15 CLR None
2017-11-23 03:00 21 16 16 79 290° 3 - 30.20 30.21 15 FEW027 None
2017-11-23 02:00 21 16 16 79 280° 3 - 30.20 30.22 15 FEW027 None
2017-11-23 01:00 23 16 16 73 300° 6 - 30.20 30.21 15 FEW027 None
2017-11-23 00:00 25 16 19 68 320° 5 - 30.20 30.21 15 FEW027 None
2017-11-22 23:00 27 16 16 63 300° 12 - 30.20 30.21 15 OVC025 None
2017-11-22 22:00 28 19 20 68 300° 9 - 30.17 30.19 15 BKN025 None
2017-11-22 21:00 30 19 19 63 290° 16 - 30.15 30.16 15 SCT026 None
2017-11-22 20:00 32 23 20 68 310° 13 21 30.12 30.13 15 SCT024 None
2017-11-22 19:00 34 25 23 69 320° 18 - 30.09 30.10 15 FEW018 BKN040 BKN092 None

Support USWX by starting your Amazon purchase here.